Home > Weather > Hamilton > Past weeks

Flag for Bermuda Past Weather in Hamilton, Bermuda — Yesterday and Last 2 Weeks

Now
82 °F

Passing clouds.


Feels Like: 89 °F
Forecast: 83 / 86 °F
Wind: 17 mph from Southwest

Location: Bermuda

Current Time: Jul 30, 2016 at 8:11:00 AM

Latest Report: Jul 30, 2016 at 6:55 AM


Visibility: N/A

Pressure: 30.12 "Hg

Humidity: 79%

Dew Point: 75 °F

Location of HamiltonLocation

Past Weather in Hamilton — Graph

°F

Hamilton Temperature Yesterday

Maximum temperature yesterday: 86 °F (at 10:55 AM)
Minimum temperature yesterday: 79 °F (at 4:55 AM)
Average temperature yesterday: 83 °F

High & Low Weather Summary for the Past Weeks

 TemperatureHumidityPressure
High88 °F (Jul 20, 2:55 PM)94% (Jul 21, 7:55 AM)30.30 "Hg (Jul 21, 7:55 AM)
Low70 °F (Jul 21, 7:55 AM)62% (Jul 23, 12:55 PM)30.01 "Hg (Jul 27, 3:55 AM)
Average82 °F76%30.14 "Hg
* Reported Jul 15 6:55 AM — Jul 30 6:55 AM, Hamilton, Weather by CustomWeather, © 2016

Note: Actual official high and low records may vary slightly from our data, if they occured in-between our weather recording intervals... More about our weather records

Advertising

Hamilton Weather History for the Previous 24 Hours

Scroll right to see more
 ConditionsComfort  
Time TempWeatherWind HumidityBarometerVisibility
6:55 AM
Sat, Jul 30
82 °FPassing clouds.17 mph79%30.12 "HgN/A
5:55 AM82 °FPassing clouds.17 mph79%30.09 "HgN/A
4:55 AM82 °FPassing clouds.17 mph79%30.09 "HgN/A
3:55 AM82 °FPassing clouds.14 mph79%30.09 "HgN/A
2:55 AM82 °FScattered showers. Passing clouds.17 mph79%30.09 "HgN/A
1:55 AM82 °FPassing clouds.16 mph84%30.12 "HgN/A
12:55 AM81 °FScattered showers. Passing clouds.17 mph79%30.12 "HgN/A
11:55 PM
Fri, Jul 29
82 °FPassing clouds.16 mph84%30.12 "HgN/A
10:55 PM82 °FPassing clouds.17 mph84%30.12 "HgN/A
9:55 PM82 °FPassing clouds.17 mph84%30.12 "HgN/A
8:55 PM84 °FScattered clouds.16 mph74%30.09 "HgN/A
7:55 PM84 °FScattered showers. Scattered clouds.14 mph74%30.09 "HgN/A
6:55 PM86 °FScattered showers. Broken clouds.14 mph75%30.07 "HgN/A
5:55 PM86 °FPassing clouds.14 mph75%30.07 "HgN/A
4:55 PM86 °FPassing clouds.16 mph70%30.07 "HgN/A
3:55 PM86 °FScattered showers. Passing clouds.16 mph75%30.07 "HgN/A
2:55 PM86 °FScattered clouds.15 mph75%30.07 "HgN/A
1:55 PM86 °FScattered clouds.14 mph75%30.09 "HgN/A
12:55 PM86 °FScattered clouds.12 mph75%30.09 "HgN/A
11:55 AM86 °FPassing clouds.13 mph75%30.09 "HgN/A
10:55 AM86 °FPassing clouds.12 mph70%30.09 "HgN/A
9:55 AM84 °FPassing clouds.9 mph74%30.09 "HgN/A
8:55 AM84 °FPassing clouds.9 mph74%30.09 "HgN/A
Weather by CustomWeather, © 2016

See weather overviewHow to use our weather pages